TimeAKDT,TemperatureF,Dew PointF,Humidity,Sea Level PressureIn,VisibilityMPH,Wind Direction,Wind SpeedMPH,Gust SpeedMPH,PrecipitationIn,Events,Conditions,WindDirDegrees,DateUTC
12:53 AM,51.1,45.0,80,30.01,10.0,SSW,15.0,27.6,0.04,Rain,Light Rain,200,2013-10-14 08:53:00
1:53 AM,51.1,46.0,83,30.01,10.0,SSW,17.3,25.3,0.02,Rain,Light Rain,200,2013-10-14 09:53:00
2:53 AM,51.1,46.0,83,30.03,10.0,South,16.1,31.1,0.04,Rain,Light Rain,190,2013-10-14 10:53:00
3:53 AM,51.1,46.0,83,30.01,10.0,SSW,23.0,36.8,0.01,,Overcast,200,2013-10-14 11:53:00
4:53 AM,52.0,46.0,80,30.03,10.0,SSW,23.0,31.1,N/A,,Overcast,210,2013-10-14 12:53:00
5:53 AM,53.1,46.0,77,30.03,10.0,SSW,17.3,32.2,N/A,,Partly Cloudy,200,2013-10-14 13:53:00
6:53 AM,54.0,45.0,72,30.02,10.0,SSW,17.3,25.3,N/A,,Mostly Cloudy,210,2013-10-14 14:53:00
7:53 AM,53.1,44.1,71,30.04,10.0,SSW,19.6,28.8,N/A,,Partly Cloudy,210,2013-10-14 15:53:00
8:53 AM,53.1,43.0,69,30.06,10.0,SSW,19.6,26.5,N/A,,Mostly Cloudy,200,2013-10-14 16:53:00
9:53 AM,53.1,43.0,69,30.08,10.0,South,16.1,24.2,N/A,,Mostly Cloudy,190,2013-10-14 17:53:00
10:53 AM,54.0,42.1,64,30.08,10.0,South,10.4,-,N/A,,Clear,190,2013-10-14 18:53:00
11:53 AM,53.1,42.1,66,30.08,10.0,SSW,16.1,21.9,N/A,,Partly Cloudy,200,2013-10-14 19:53:00
12:53 PM,54.0,42.1,64,30.07,10.0,South,9.2,-,N/A,,Clear,190,2013-10-14 20:53:00
1:53 PM,53.1,42.1,66,30.09,10.0,SSW,11.5,-,N/A,,Partly Cloudy,200,2013-10-14 21:53:00
2:53 PM,52.0,41.0,66,30.09,10.0,SSW,16.1,26.5,N/A,,Clear,200,2013-10-14 22:53:00
3:53 PM,52.0,41.0,66,30.10,10.0,SSW,20.7,-,N/A,,Clear,210,2013-10-14 23:53:00
4:53 PM,51.1,39.9,66,30.11,10.0,SSW,13.8,-,N/A,,Scattered Clouds,210,2013-10-15 00:53:00
5:53 PM,51.1,39.9,66,30.14,10.0,SSW,15.0,23.0,N/A,,Mostly Cloudy,200,2013-10-15 01:53:00
6:53 PM,51.1,39.9,66,30.16,10.0,SSW,17.3,23.0,N/A,,Mostly Cloudy,200,2013-10-15 02:53:00
7:53 PM,48.9,41.0,74,30.18,10.0,SSW,16.1,25.3,N/A,,Mostly Cloudy,200,2013-10-15 03:53:00
8:53 PM,48.9,41.0,74,30.23,10.0,SSW,16.1,25.3,N/A,,Overcast,200,2013-10-15 04:53:00
9:53 PM,48.9,39.9,71,30.25,10.0,SSW,16.1,-,N/A,,Mostly Cloudy,210,2013-10-15 05:53:00
10:53 PM,48.9,39.9,71,30.25,10.0,SSW,17.3,-,N/A,,Mostly Cloudy,200,2013-10-15 06:53:00
11:53 PM,48.9,39.9,71,30.28,10.0,SSW,16.1,23.0,N/A,,Overcast,200,2013-10-15 07:53:00